Regional Weather Roundup
Issued by NWS

Home | Current Version | Previous Version | Text Only | Print | Product List | Glossary On
Versions: 1 2 3 4 5 6 7 8 9 10 11 12 13 14 15 16 17 18 19 20 21 22 23 24 25 26 27 28 29 30 31 32 33 34 35 36 37 38 39 40 41 42 43 44 45 46 47 48 49 50
000
ASHW40 PHFO 242212
RWRHI

WEATHER ROUNDUP FOR HAWAII
NATIONAL WEATHER SERVICE HONOLULU HI
1200 PM HST MON APR 24 2017

THIS IS AN AUTOMATED REPORT THAT HAS NOT BEEN QUALITY CONTROLLED.

NOTE..."FAIR" INDICATES FEW OR NO CLOUDS BELOW 12,000 FEET WITH NO
SIGNIFICANT WEATHER AND/OR OBSTRUCTIONS TO VISIBILITY.

* - THESE SITES REPORT LIMITED FIELDS

HIZ001>004-242300-
KAUAI-NIIHAU-

CITY           SKY/WX    TMP DP  RH WIND       PRES   REMARKS
LIHUE APT      MOSUNNY   82  67  60 E12       30.13F
PORT ALLEN*      N/A     84 N/A N/A SE18G24     N/A
POIPU*           N/A     82 N/A N/A E8G16       N/A
PRINCEVILLE*     N/A     81 N/A N/A SE10G18     N/A
KOKOLE POINT*  NOT AVBL
MOLOAA DAIRY*    N/A     81  66  61 SE13G20     N/A
WAIMEA HTS*    NOT AVBL
PUU OPAE*      NOT AVBL
PUU LUA*       NOT AVBL
MAKAHA RIDGE*  NOT AVBL
$$

HIZ005>011-242300-
OAHU-

CITY           SKY/WX    TMP DP  RH WIND       PRES   REMARKS
HONOLULU       MOSUNNY   83  63  50 NE12G23   30.10S
KALAELOA       MOSUNNY  N/A N/A N/A SE13G18   30.10F
KANEOHE MCB    NOT AVBL
WHEELER FIELD  MOSUNNY   80  63  56 E7G17     30.11F
BELLOWS*       NOT AVBL
KAHUKU*        NOT AVBL
WHEELER*       NOT AVBL
WAIANAE HARBOR NOT AVBL
DILLINGHAM*      N/A     88  57  35 SW9G16      N/A
KAHUKU TRN*      N/A     81  68  65 W9G23       N/A
KAWAILOA*        N/A     79  63  57 E10G23      N/A
KII*             N/A     81  66  61 E17G24      N/A
MAKUA RANGE*     N/A     82  68  61 E6          N/A
OAHU FOREST NW NOT AVBL
SCHOFIELD BRK*   N/A     61  43  51 MISG        N/A
SCHOFIELD S*   NOT AVBL
WAIANAE VLY*   NOT AVBL
KUAOKALA*      NOT AVBL
HONOULIUULI*   NOT AVBL
MOKUOLOE IS*   NOT AVBL
PALEHUA*       NOT AVBL
WAIAWA PHB*    NOT AVBL
$$

HIZ012>013-242300-
MOLOKAI-

CITY           SKY/WX    TMP DP  RH WIND       PRES   REMARKS
MOLOKAI AIRPT  MOSUNNY   77  64  64 NE10G20   30.09F
KALAUPAPA      NOT AVBL
MAKAPULAPAI*   NOT AVBL
MOLOKAI 1*     NOT AVBL
PUU ALII*      NOT AVBL
$$

HIZ016-242300-
KAHOOLAWE-

CITY           SKY/WX    TMP DP  RH WIND       PRES   REMARKS
KAHOOLAWE*     NOT AVBL
HAKIOAWA*      NOT AVBL
HONOKANAIA*      N/A     85  57  38 NE16G36   30.04F
KANELOA*         N/A     81  64  57 E22G33    30.17S
KEALIALALO*    NOT AVBL
LUA MAKIKA*    NOT AVBL
$$

HIZ014>015-242300-
LANAI-

CITY           SKY/WX    TMP DP  RH WIND       PRES   REMARKS
LANAI CITY     CLOUDY    76  63  64 W9        30.15F
LANAI 1*       NOT AVBL
$$

HIZ017>028-242300-
MAUI-

CITY           SKY/WX    TMP DP  RH WIND       PRES   REMARKS
KAHULUI        MOSUNNY   84  66  54 NE22G28   30.08F
KAPALUA-W MAUI MOSUNNY   82  59  44 NE15      30.10
HANA AIRPORT   NOT AVBL
HANA*            N/A     81 N/A N/A E7          N/A
HALEAKALA SUMM   N/A     48  12  23 E28G43      N/A
MAALAEA BAY*   NOT AVBL
HALEAKALA*     NOT AVBL
KAUPO GAP*     NOT AVBL
KULA 1*          N/A     62  53  71 NW6G21      N/A
$$

HIZ023>026-242300-
BIG ISLAND OF HAWAII COAST AND LOWER SLOPES-

CITY           SKY/WX    TMP DP  RH WIND       PRES   REMARKS
KAILUA KONA    CLOUDY    80  66  62 SW10      30.06F
HILO           PTSUNNY   82  63  52 E9        30.10F
HONOKAA*         N/A     75 N/A N/A VRB1        N/A
KAWAIHAE MWT*    N/A     81 N/A N/A W6          N/A
KAWAIHAE*      NOT AVBL
SOUTH POINT*     N/A     79 N/A N/A N20G28      N/A
UPOLU AIRPORT* NOT AVBL
KAMUELA*       CLEAR     73  61  64 NE14      30.17F
HAKALAU*         N/A     64  46  52 S6G13       N/A
KALOKO-HONOKO* NOT AVBL
PALI 2*          N/A     79  54  41 SW10G18     N/A
KEALAKOMO*       N/A     82  64  54 E18         N/A
KAUPULEHU*     NOT AVBL
KAPAPALA*        N/A     78  63  60 E8G21       N/A
LOWER KAHUKU*  NOT AVBL
PUHE CS*       NOT AVBL
PUHO CS*       NOT AVBL
PTA KEAMUKU*     N/A     72  57  60 CALM        N/A
WAIKOLOA*      NOT AVBL
$$

HIZ027>028-242300-
BIG ISLAND OF HAWAII INTERIOR AND SUMMMITS-

CITY           SKY/WX    TMP DP  RH WIND       PRES   REMARKS
BRADSHAW FIELD PTSUNNY   67  20  17 S21G29    30.35F
MK VISITOR CEN   N/A     50  10  20 SE14        N/A
MAUNA KEA*       N/A     39 -15   9 NE16        N/A
MAUNA LOA*       N/A    N/A N/A N/A MISG        N/A
MAUNA LOA 1*   NOT AVBL
PTA KIPUKA*      N/A     46  32  57 NW6G16      N/A
PTA RANGE 17*    N/A     57  14  18 E15G28      N/A
PTA WEST*        N/A     48  36  61 NW9G20      N/A
NENE CABIN*    NOT AVBL
AHUMOA*        NOT AVBL
PTA PORTABLE*  NOT AVBL
PUU MALI*        N/A     63  52  67 NW6G12      N/A
$$

HIC003-242300-
NORTHWEST ISLANDS-

CITY           SKY/WX    TMP DP  RH WIND       PRES   REMARKS
MIDWAY ISLAND  MOSUNNY   75  70  83 SW12      30.02S
MIDWAY NOS*    NOT AVBL
FRENCH FRIGATE NOT AVBL
$$

PHZ110>124-180-242300-
BUOY REPORTS

STATION/POSITION TIME  TEMP    WIND        PRES    WAVE   SWELL
                       AIR SEA DIR/SP/G            HT/PER HT/DIR
                 (UTC) (F)     (DEG/KT/KT) (MB)    (FT/S) (FT/D)
BUOY 51001       2150   75 76  130/ 10/ 14 1019.9F   5/12   5/300
BUOY 51101       2150   76 76  120/ 12/ 14 1020.2F   5/11   5/270
BUOY 51100       NOT AVBL
BUOY 51002       2150   78 79   70/ 17/ 21 1017.1F   9/ 9   5/110
BUOY 51003       2150   77 79   90/ 12/ 16 1018.2F   7/ 8   5/120
BUOY 51004       2150      78   60/ 12/ 14 1018.0F   8/ 9   7/100
BARBERS PT BUOY  NOT AVBL
WAIMEA BAY BUOY  2102      77                N/A     4/ 9   2/350
KAILUA BAY BUOY  2134      78                N/A     5/10   2/360
LANAI BUOY       2145      79                N/A     3/11   2/200
BARBERS PT 2     NOT AVBL
PAUWELA MAUI     2139      77                N/A     5/ 8   2/350
HILO             2142      79                N/A     6/ 9   2/ 20
KANEOHE BAY BUOY 2155      78                N/A     5/11   2/ 10
HANALEI KAUAI    2152      77                N/A     4/10   2/350
KAHULUI HARBOR   2148           10/  6/ 15 1019.1F
HONOLULU HARBOR  2148   81 79   70/  8/ 14 1020.0F
KILO NALU        NOT AVBL
HILO HARBOR      2148   91 78  130/  7/ 11 1019.1F
MOKUOLOE         2136   79 79   80/ 11/ 14 1019.9F
NAWILIWILI       2148   78      80/ 11/ 12 1019.7F
WHOTS BUOY       NOT AVBL
BUOY 51028       NOT AVBL
$$

......................KEY........................................
  SKY/WX - SKY CONDITIONS/PRESENT WEATHER
  TMP    - TEMPERATURE IN FAHRENHEIT
  DWPT   - DEWPOINT IN FAHRENHEIT
  RH     - RELATIVE HUMIDITY IN PERCENT
  WIND   - DIRECTION AND SPEED /MPH FOR ISLANDS...KTS FOR BUOYS/
  PRES   - MEAN SEA LEVEL PRESSURE IN INCHES OF HG
  VSB    - VISIBILITY IN MILES
  HX     - HEAT INDEX
  WCI    - WIND CHILL INDEX
  VRB    - VARIABLE WIND DIRECTION
  N/A    - NOT AVAILABLE




USA.gov is the U.S. government's official web portal to all federal, state and local government web resources and services.